Regional Weather Roundup
Issued by NWS

Home | Current Version | Previous Version | Graphics & Text | Print | Product List | Glossary On
Versions: 1 2 3 4 5 6 7 8 9 10 11 12 13 14 15 16 17 18 19 20 21 22 23 24 25 26 27 28 29 30 31 32 33 34 35 36 37 38 39 40 41 42 43 44 45 46 47 48 49 50
000
ASUS43 KBIS 170102
RWRND

NORTH DAKOTA REGIONAL WEATHER ROUNDUP
NATIONAL WEATHER SERVICE BISMARCK ND
700 PM CST SAT DEC 16 2017

NOTE: "FAIR" INDICATES FEW OR NO CLOUDS BELOW 12,000 FEET WITH NO
SIGNIFICANT WEATHER AND/OR OBSTRUCTIONS TO VISIBILITY.


NDZ001>003-009>011-017-170200-
NORTHWEST NORTH DAKOTA

CITY           SKY/WX    TMP DP  RH WIND       PRES   REMARKS
WILLISTON      CLEAR     27  21  78 CALM      30.01R
MINOT          CLEAR     31  22  69 SW10      29.97R
MINOT AFB      PTCLDY    28  21  76 W10       29.96R WCI  19
$$

NDZ018>021-031>035-040>046-170200-
SOUTHWEST NORTH DAKOTA

CITY           SKY/WX    TMP DP  RH WIND       PRES   REMARKS
BISMARCK       CLOUDY    32  29  88 W6        30.02R
DICKINSON      PTCLDY    24  18  77 W6        29.99R WCI  17
GARRISON         N/A     31  23  72 W10       29.99R
HETTINGER ARPT CLOUDY    27  21  78 CALM      30.03R
$$

NDZ004>008-012>016-024-026-027-054-170200-
NORTHEAST NORTH DAKOTA

CITY           SKY/WX    TMP DP  RH WIND       PRES   REMARKS
GRAND FORKS    CLOUDY    13  12  96 S5        30.02R WCI   5
GRND FRKS AFB  CLOUDY    13  11  90 SW5       30.02R WCI   5
DEVILS LAKE    CLOUDY    26  24  92 SW8       29.98R WCI  18
$$

NDZ022-023-025-028>030-036>039-047>053-170200-
SOUTHEAST NORTH DAKOTA

CITY           SKY/WX    TMP DP  RH WIND       PRES   REMARKS
FARGO          CLOUDY    24  23  96 S3        30.04R FOG
JAMESTOWN      PTCLDY    29  28  96 S3        29.99R
$$





USA.gov is the U.S. government's official web portal to all federal, state and local government web resources and services.